Regional Weather Roundup
Issued by NWS Green Bay, WI

Home | Current Version | Previous Version | Graphics & Text | Print | Product List | Glossary Off
Versions: 1 2 3 4 5 6 7 8 9 10 11 12 13 14 15 16 17 18 19 20 21 22 23 24 25 26 27 28 29 30 31 32 33 34 35 36 37 38 39 40 41 42 43 44 45 46 47 48 49 50

000
ASUS43 KGRB 251611
RWRGRB

NORTH-CENTRAL AND NORTHEAST WISCONSIN REGIONAL WEATHER ROUNDUP
NATIONAL WEATHER SERVICE GREEN BAY WI
1100 AM CDT MON SEP 25 2017

WIZ005-009-010>012-018-019-251700-
NORTH CENTRAL WISCONSIN

CITY           SKY/WX    TMP DP  RH WIND       PRES   REMARKS
IRONWOOD       CLOUDY    67  62  84 N5        30.00R
MANITOWISH WTR NOT AVBL
ARBOR VITAE    MOSUNNY   77  67  71 NW3       30.00F
EAGLE RIVER    SUNNY     76  62  61 W3        30.01S
LAND O LAKES   SUNNY     75  63  66 NW3       30.03S
RHINELANDER    SUNNY     76  65  68 S5        30.02S
PHILLIPS       CLOUDY    73  65  75 CALM      29.99F
ANTIGO         MOSUNNY   77  64  63 S5        30.01F
TOMAHAWK       SUNNY     74  63  67 CALM      30.01S
MERRILL        SUNNY     76  64  67 CALM      30.00S
$$

WIZ013-073-251700-
NORTHEAST WISCONSIN

CITY           SKY/WX    TMP DP  RH WIND       PRES   REMARKS
IRON MOUNTAIN  SUNNY     78  63  59 CALM      29.99R
MARINETTE      MOSUNNY   78  64  61 SW5       29.99S
OCONTO         MOSUNNY   75  65  70 CALM      29.98F
$$

WIZ017-030-035>037-045-251700-
CENTRAL WISCONSIN

CITY           SKY/WX    TMP DP  RH WIND       PRES   REMARKS
MEDFORD        MOSUNNY   75  64  69 E5        29.99F
WAUSAU         SUNNY     77  64  64 S3        29.98S
MOSINEE        MOSUNNY   79  64  61 S6        30.00F
MARSHFIELD     SUNNY     78  63  59 VRB3      29.98S
WISC RAPIDS    SUNNY     81  65  58 S7        29.99F
STEVENS POINT  SUNNY     79  62  57 S6        29.99F
WAUPACA        SUNNY     83  64  54 CALM      29.99S
SHAWANO        MOSUNNY   81  63  54 SW5       29.98F
CLINTONVILLE   NOT AVBL
WAUTOMA        NOT AVBL
$$

WIZ038-039-048-051-251700-
FOX VALLEY

CITY           SKY/WX    TMP DP  RH WIND       PRES   REMARKS
NWS GREEN BAY  SUNNY     83  66  56 VRB6      29.99S
APPLETON       PTSUNNY   81  57  44 VRB3      29.98F
OSHKOSH        SUNNY     82  65  56 CALM      29.99S
FOND DU LAC    MOSUNNY   83  62  49 VRB5      30.00S
$$

WIZ022-050-052-251700-
EAST CENTRAL WISCONSIN

CITY           SKY/WX    TMP DP  RH WIND       PRES   REMARKS
EPHRAIM        CLOUDY    76  63  62 CALM      29.99F
WASHINGTON ISL PTSUNNY   71  66  85 S9        29.99S
STURGEON BAY   CLOUDY    79  64  60 S6        30.00F
MANITOWOC      MOSUNNY   77  67  71 SE6       30.00F
SHEBOYGAN      SUNNY     85  66  53 S3        29.99F
$$

LMZ563-521-522-541>543-251700-
LAKESHORE

STATION/POSITION TIME  TEMP    WIND        PRES    VSBY  WAVE
                       AIR SEA DIR/SP/G                  HT/PER
                 (UTC) (F)     (DEG/KT/KT) (MB)    (MI)  (FT/S)
SHEBOYGAN LKSHOR 1600   71     170/ 11/ 11 1015.3R
KEWAUNEE LKSHORE 1542   66     160/  6/  7 1015.1F
NORTHPORT PIER   1540   72     150/  5/  8 1015.6S
N MID LAKE BUOY  1550   69 67  190/ 12/ 14 1016.3S         2/ 4
S GREEN BAY BUOY 1500   71 69  220/  2/  4 1015.5
SISTER BAY LKSHO 1519   79     220/  3/  6   N/A
MENOMINEE LKSHOR 1542   72     150/  7/  7 1015.1S
$$




USA.gov is the U.S. government's official web portal to all federal, state and local government web resources and services.